Time,TemperatureF,DewpointF,PressureIn,WindDirection,WindDirectionDegrees,WindSpeedMPH,WindSpeedGustMPH,Humidity,HourlyPrecipIn,Conditions,Clouds,dailyrainin,SoftwareType,DateUTC
2013-04-22 00:01:00,72.0,-99.9,-100.00,NNW,340,2.0,7.0,-999,-99.99,,,-99.99,,2013-04-22 07:01:00,
2013-04-22 00:12:00,72.0,-99.9,-100.00,NNW,340,2.0,7.0,-999,-99.99,,,-99.99,,2013-04-22 07:12:00,
2013-04-22 01:32:00,70.0,-99.9,-100.00,SSE,152,4.0,7.0,-999,-99.99,,,-99.99,,2013-04-22 08:32:00,
2013-04-22 01:42:00,70.0,-99.9,-100.00,SSE,152,4.0,7.0,-999,-99.99,,,-99.99,,2013-04-22 08:42:00,
2013-04-22 01:53:00,70.0,-99.9,-100.00,South,187,6.0,6.0,-999,-99.99,,,-99.99,,2013-04-22 08:53:00,
2013-04-22 02:01:00,70.0,-99.9,-100.00,South,186,1.0,6.0,-999,-99.99,,,-99.99,,2013-04-22 09:01:00,
2013-04-22 02:11:00,70.0,-99.9,-100.00,South,186,1.0,6.0,-999,-99.99,,,-99.99,,2013-04-22 09:11:00,
2013-04-22 02:22:00,69.0,-99.9,-100.00,SSW,195,14.0,15.0,-999,-99.99,,,-99.99,,2013-04-22 09:22:00,
2013-04-22 02:33:00,69.0,-99.9,-100.00,SSW,195,14.0,15.0,-999,-99.99,,,-99.99,,2013-04-22 09:33:00,
2013-04-22 03:03:00,68.0,-99.9,-100.00,SSW,193,12.0,12.0,-999,-99.99,,,-99.99,,2013-04-22 10:03:00,
2013-04-22 03:12:00,68.0,-99.9,-100.00,SSW,193,12.0,12.0,-999,-99.99,,,-99.99,,2013-04-22 10:12:00,
2013-04-22 03:23:00,67.0,-99.9,-100.00,SSW,193,4.0,8.0,-999,-99.99,,,-99.99,,2013-04-22 10:23:00,
2013-04-22 03:33:00,68.0,-99.9,-100.00,NNW,331,1.0,8.0,-999,-99.99,,,-99.99,,2013-04-22 10:33:00,
2013-04-22 03:42:00,68.0,-99.9,-100.00,NNW,331,1.0,8.0,-999,-99.99,,,-99.99,,2013-04-22 10:42:00,
2013-04-22 03:53:00,67.0,-99.9,-100.00,NW,307,0.0,6.0,-999,-99.99,,,-99.99,,2013-04-22 10:53:00,
2013-04-22 04:02:00,67.0,-99.9,-100.00,South,189,16.0,16.0,-999,-99.99,,,-99.99,,2013-04-22 11:02:00,
2013-04-22 04:12:00,67.0,-99.9,-100.00,South,189,16.0,16.0,-999,-99.99,,,-99.99,,2013-04-22 11:12:00,
2013-04-22 04:22:00,67.0,-99.9,-100.00,South,185,14.0,14.0,-999,-99.99,,,-99.99,,2013-04-22 11:22:00,
2013-04-22 04:33:00,67.0,-99.9,-100.00,South,185,14.0,14.0,-999,-99.99,,,-99.99,,2013-04-22 11:33:00,
2013-04-22 04:43:00,67.0,-99.9,-100.00,South,180,8.0,15.0,-999,-99.99,,,-99.99,,2013-04-22 11:43:00,
2013-04-22 05:00:00,66.0,-99.9,-100.00,SSW,194,15.0,18.0,-999,-99.99,,,-99.99,,2013-04-22 12:00:00,
2013-04-22 05:52:00,66.0,-99.9,-100.00,SSW,194,15.0,18.0,-999,-99.99,,,-99.99,,2013-04-22 12:52:00,
2013-04-22 06:22:00,66.0,-99.9,-100.00,South,190,14.0,14.0,-999,-99.99,,,-99.99,,2013-04-22 13:22:00,
2013-04-22 06:32:00,66.0,-99.9,-100.00,South,190,14.0,14.0,-999,-99.99,,,-99.99,,2013-04-22 13:32:00,
2013-04-22 06:40:00,65.0,-99.9,-100.00,SSW,199,9.0,9.0,-999,-99.99,,,-99.99,,2013-04-22 13:40:00,
2013-04-22 07:22:00,65.0,-99.9,-100.00,SSW,199,9.0,9.0,-999,-99.99,,,-99.99,,2013-04-22 14:22:00,
2013-04-22 07:33:00,65.0,-99.9,-100.00,SSW,199,9.0,9.0,-999,-99.99,,,-99.99,,2013-04-22 14:33:00,
2013-04-22 07:52:00,66.0,-99.9,-100.00,SSW,211,6.0,8.0,-999,-99.99,,,-99.99,,2013-04-22 14:52:00,
2013-04-22 08:02:00,66.0,-99.9,-100.00,SSW,211,6.0,8.0,-999,-99.99,,,-99.99,,2013-04-22 15:02:00,
2013-04-22 08:53:00,69.0,-99.9,-100.00,SSW,202,9.0,10.0,-999,-99.99,,,-99.99,,2013-04-22 15:53:00,
2013-04-22 09:03:00,70.0,-99.9,-100.00,SSW,205,9.0,12.0,-999,-99.99,,,-99.99,,2013-04-22 16:03:00,
2013-04-22 09:13:00,70.0,-99.9,-100.00,SSW,205,9.0,12.0,-999,-99.99,,,-99.99,,2013-04-22 16:13:00,
2013-04-22 09:33:00,73.0,-99.9,-100.00,SSW,201,7.0,11.0,-999,-99.99,,,-99.99,,2013-04-22 16:33:00,
2013-04-22 09:42:00,73.0,-99.9,-100.00,SSW,201,7.0,11.0,-999,-99.99,,,-99.99,,2013-04-22 16:42:00,
2013-04-22 12:32:00,81.0,-99.9,-100.00,SSW,199,10.0,12.0,-999,-99.99,,,-99.99,,2013-04-22 19:32:00,
2013-04-22 12:42:00,81.0,-99.9,-100.00,SSW,199,10.0,12.0,-999,-99.99,,,-99.99,,2013-04-22 19:42:00,
2013-04-22 12:53:00,82.0,-99.9,-100.00,SW,230,6.0,11.0,-999,-99.99,,,-99.99,,2013-04-22 19:53:00,
2013-04-22 13:02:00,83.0,-99.9,-100.00,WSW,253,6.0,8.0,-999,-99.99,,,-99.99,,2013-04-22 20:02:00,
2013-04-22 13:11:00,83.0,-99.9,-100.00,WSW,253,6.0,8.0,-999,-99.99,,,-99.99,,2013-04-22 20:11:00,
2013-04-22 13:22:00,83.0,-99.9,-100.00,WSW,253,6.0,8.0,-999,-99.99,,,-99.99,,2013-04-22 20:22:00,
2013-04-22 13:32:00,84.0,-99.9,-100.00,SSW,202,7.0,10.0,-999,-99.99,,,-99.99,,2013-04-22 20:32:00,
2013-04-22 13:42:00,84.0,-99.9,-100.00,SSW,202,7.0,10.0,-999,-99.99,,,-99.99,,2013-04-22 20:42:00,
2013-04-22 13:52:00,84.0,-99.9,-100.00,SSW,202,7.0,10.0,-999,-99.99,,,-99.99,,2013-04-22 20:52:00,
2013-04-22 15:03:00,86.0,-99.9,-100.00,WSW,255,13.0,14.0,-999,-99.99,,,-99.99,,2013-04-22 22:03:00,
2013-04-22 15:12:00,86.0,-99.9,-100.00,WSW,255,13.0,14.0,-999,-99.99,,,-99.99,,2013-04-22 22:12:00,
2013-04-22 15:22:00,86.0,-99.9,-100.00,WSW,255,13.0,14.0,-999,-99.99,,,-99.99,,2013-04-22 22:22:00,
2013-04-22 15:40:00,87.0,-99.9,-100.00,SW,223,4.0,12.0,-999,-99.99,,,-99.99,,2013-04-22 22:40:00,
2013-04-22 16:22:00,87.0,-99.9,-100.00,SW,223,4.0,12.0,-999,-99.99,,,-99.99,,2013-04-22 23:22:00,
2013-04-22 16:52:00,87.0,-99.9,-100.00,WSW,244,8.0,14.0,-999,-99.99,,,-99.99,,2013-04-22 23:52:00,
2013-04-22 17:02:00,87.0,-99.9,-100.00,WSW,258,13.0,15.0,-999,-99.99,,,-99.99,,2013-04-23 00:02:00,
2013-04-22 18:01:00,87.0,-99.9,-100.00,WSW,250,11.0,13.0,-999,-99.99,,,-99.99,,2013-04-23 01:01:00,
2013-04-22 18:52:00,87.0,-99.9,-100.00,WSW,252,12.0,12.0,-999,-99.99,,,-99.99,,2013-04-23 01:52:00,
2013-04-22 19:02:00,87.0,-99.9,-100.00,WSW,252,12.0,12.0,-999,-99.99,,,-99.99,,2013-04-23 02:02:00,
2013-04-22 19:22:00,84.0,-99.9,-100.00,West,260,12.0,14.0,-999,-99.99,,,-99.99,,2013-04-23 02:22:00,
2013-04-22 20:20:00,75.0,-99.9,-100.00,North,0,0.0,7.0,-999,-99.99,,,-99.99,,2013-04-23 03:20:00,
2013-04-22 20:53:00,76.0,-99.9,-100.00,SSW,210,6.0,9.0,-999,-99.99,,,-99.99,,2013-04-23 03:53:00,
2013-04-22 21:03:00,75.0,-99.9,-100.00,North,0,0.0,7.0,-999,-99.99,,,-99.99,,2013-04-23 04:03:00,
2013-04-22 21:13:00,75.0,-99.9,-100.00,North,0,0.0,7.0,-999,-99.99,,,-99.99,,2013-04-23 04:13:00,
2013-04-22 21:33:00,73.0,-99.9,-100.00,SW,222,6.0,9.0,-999,-99.99,,,-99.99,,2013-04-23 04:33:00,
2013-04-22 21:44:00,73.0,-99.9,-100.00,SW,222,6.0,9.0,-999,-99.99,,,-99.99,,2013-04-23 04:44:00,
2013-04-22 21:53:00,73.0,-99.9,-100.00,SW,222,6.0,9.0,-999,-99.99,,,-99.99,,2013-04-23 04:53:00,
2013-04-22 22:52:00,70.0,-99.9,-100.00,WNW,288,3.0,4.0,-999,-99.99,,,-99.99,,2013-04-23 05:52:00,
2013-04-22 23:02:00,70.0,-99.9,-100.00,WNW,288,3.0,4.0,-999,-99.99,,,-99.99,,2013-04-23 06:02:00,